When you browse on this site, cookies collect data to enhance your experience and personalize the content and advertising you see.
Visit our Privacy Policy to learn more. By continuing to use the site, you agree to this use of cookies and data.
  • In France
  • List of Countries
  • For 7 days
  • Water Temperature
  • Weather Map
  • Weather Widgets
  • user-avatar
    Login

    Hourly Weather Stupishino

    Today, 25 May, Monday

    Time Temperature Precipitation Wind Pressure Humidity
    00:00 +6°C° 0 mm 2 mps 749 mmHg 84%
    01:00 +5°C° 0 mm 2 mps 749 mmHg 86%
    02:00 +6°C° 0 mm 1 mps 749 mmHg 86%
    03:00 +7°C° 0 mm 1 mps 750 mmHg 86%
    04:00 +7°C° 0 mm 1 mps 750 mmHg 86%
    05:00 +8°C° 0 mm 1 mps 750 mmHg 86%
    06:00 +9°C° 0 mm 2 mps 751 mmHg 81%
    07:00 +10°C° 0 mm 2 mps 751 mmHg 76%
    08:00 +13°C° 0 mm 2 mps 751 mmHg 71%
    09:00 +13°C° 0.1 mm 3 mps 751 mmHg 68%
    10:00 +14°C° 0.1 mm 3 mps 751 mmHg 64%
    11:00 +16°C° 0.1 mm 3 mps 751 mmHg 61%
    12:00 +16°C° 0.1 mm 3 mps 751 mmHg 61%
    13:00 +17°C° 0.1 mm 3 mps 751 mmHg 61%
    14:00 +17°C° 0.1 mm 3 mps 751 mmHg 61%
    15:00 +17°C° 0.3 mm 3 mps 751 mmHg 66%
    16:00 +16°C° 0.3 mm 3 mps 751 mmHg 70%
    17:00 +16°C° 0.3 mm 3 mps 751 mmHg 75%
    18:00 +13°C° 0 mm 3 mps 751 mmHg 79%
    19:00 +12°C° 0 mm 3 mps 752 mmHg 83%
    20:00 +12°C° 0 mm 2 mps 752 mmHg 88%
    21:00 +10°C° 0 mm 2 mps 752 mmHg 88%
    22:00 +10°C° 0 mm 2 mps 752 mmHg 89%
    23:00 +9°C° 0 mm 2 mps 752 mmHg 90%

    Tomorrow, 26 May, Tuesday

    Time Temperature Precipitation Wind Pressure Humidity
    00:00 +9°C° 0 mm 2 mps 752 mmHg 90%
    01:00 +9°C° 0 mm 2 mps 752 mmHg 90%
    02:00 +9°C° 0 mm 2 mps 753 mmHg 91%
    03:00 +9°C° 0 mm 2 mps 753 mmHg 90%
    04:00 +9°C° 0 mm 3 mps 753 mmHg 90%
    05:00 +10°C° 0 mm 3 mps 752 mmHg 90%
    06:00 +11°C° 0.3 mm 3 mps 753 mmHg 88%
    07:00 +11°C° 0.3 mm 4 mps 753 mmHg 86%
    08:00 +12°C° 0.3 mm 4 mps 753 mmHg 84%
    09:00 +12°C° 0.2 mm 4 mps 753 mmHg 82%
    10:00 +13°C° 0.2 mm 4 mps 753 mmHg 80%
    11:00 +13°C° 0.2 mm 4 mps 753 mmHg 78%
    12:00 +14°C° 0.1 mm 4 mps 753 mmHg 75%
    13:00 +14°C° 0.1 mm 3 mps 753 mmHg 73%
    14:00 +16°C° 0.1 mm 3 mps 752 mmHg 70%
    15:00 +16°C° 0.6 mm 3 mps 752 mmHg 73%
    16:00 +14°C° 0.6 mm 3 mps 752 mmHg 77%
    17:00 +14°C° 0.6 mm 3 mps 751 mmHg 80%
    18:00 +13°C° 0.3 mm 3 mps 752 mmHg 83%
    19:00 +12°C° 0.3 mm 3 mps 752 mmHg 85%
    20:00 +11°C° 0.3 mm 3 mps 752 mmHg 88%
    21:00 +11°C° 0 mm 3 mps 751 mmHg 90%
    22:00 +10°C° 0 mm 2 mps 751 mmHg 91%
    23:00 +10°C° 0 mm 2 mps 751 mmHg 92%

    Day after tomorrow, 27 May, Wednesday

    Time Temperature Precipitation Wind Pressure Humidity
    00:00 +9°C° 0 mm 2 mps 751 mmHg 93%
    01:00 +9°C° 0 mm 2 mps 751 mmHg 93%
    02:00 +8°C° 0 mm 2 mps 750 mmHg 94%
    03:00 +9°C° 0 mm 2 mps 750 mmHg 94%
    04:00 +9°C° 0 mm 2 mps 750 mmHg 93%
    05:00 +9°C° 0 mm 2 mps 750 mmHg 93%
    06:00 +10°C° 0 mm 2 mps 750 mmHg 90%
    07:00 +13°C° 0 mm 2 mps 751 mmHg 87%
    08:00 +14°C° 0 mm 2 mps 751 mmHg 84%
    09:00 +15°C° 0.4 mm 2 mps 750 mmHg 81%
    10:00 +15°C° 0.4 mm 2 mps 750 mmHg 78%
    11:00 +16°C° 0.4 mm 2 mps 750 mmHg 75%
    12:00 +17°C° 0.6 mm 2 mps 750 mmHg 73%
    13:00 +17°C° 0.6 mm 2 mps 750 mmHg 72%
    14:00 +18°C° 0.6 mm 2 mps 749 mmHg 70%
    15:00 +17°C° 0.4 mm 2 mps 749 mmHg 71%
    16:00 +17°C° 0.4 mm 2 mps 749 mmHg 72%
    17:00 +17°C° 0.4 mm 2 mps 749 mmHg 74%
    18:00 +16°C° 0.3 mm 2 mps 749 mmHg 78%
    19:00 +15°C° 0.3 mm 1 mps 749 mmHg 83%
    20:00 +13°C° 0.3 mm 1 mps 749 mmHg 88%
    21:00 +13°C° 0 mm 2 mps 749 mmHg 90%
    22:00 +12°C° 0 mm 2 mps 749 mmHg 91%
    23:00 +10°C° 0 mm 2 mps 748 mmHg 93%

    28 May, Thursday

    Time Temperature Precipitation Wind Pressure Humidity
    00:00 +10°C° 0 mm 2 mps 748 mmHg 93%
    01:00 +10°C° 0 mm 2 mps 748 mmHg 94%
    02:00 +10°C° 0 mm 1 mps 748 mmHg 94%
    03:00 +11°C° 0 mm 1 mps 748 mmHg 94%
    04:00 +11°C° 0 mm 1 mps 748 mmHg 94%
    05:00 +12°C° 0 mm 1 mps 748 mmHg 93%
    06:00 +13°C° 0 mm 2 mps 748 mmHg 89%
    07:00 +15°C° 0 mm 2 mps 748 mmHg 84%
    08:00 +16°C° 0 mm 2 mps 747 mmHg 79%
    09:00 +17°C° 0.2 mm 2 mps 747 mmHg 77%
    10:00 +18°C° 0.2 mm 3 mps 747 mmHg 75%
    11:00 +19°C° 0.2 mm 3 mps 746 mmHg 73%
    12:00 +18°C° 0.5 mm 4 mps 746 mmHg 77%
    13:00 +16°C° 0.5 mm 5 mps 746 mmHg 81%
    14:00 +16°C° 0.5 mm 6 mps 746 mmHg 85%
    15:00 +15°C° 0.9 mm 5 mps 745 mmHg 88%
    16:00 +14°C° 0.9 mm 4 mps 745 mmHg 91%
    17:00 +13°C° 0.9 mm 3 mps 744 mmHg 95%
    18:00 +13°C° 1.4 mm 4 mps 744 mmHg 96%
    19:00 +13°C° 1.4 mm 4 mps 743 mmHg 96%
    20:00 +13°C° 1.4 mm 4 mps 743 mmHg 97%
    21:00 +13°C° 2.4 mm 4 mps 743 mmHg 97%
    22:00 +13°C° 2.4 mm 4 mps 742 mmHg 97%
    23:00 +13°C° 2.4 mm 4 mps 741 mmHg 97%

    29 May, Friday

    Time Temperature Precipitation Wind Pressure Humidity
    00:00 +13°C° 0.4 mm 4 mps 741 mmHg 97%
    01:00 +13°C° 0.4 mm 3 mps 741 mmHg 98%
    02:00 +13°C° 0.4 mm 3 mps 740 mmHg 98%
    03:00 +14°C° 0 mm 3 mps 740 mmHg 98%
    04:00 +14°C° 0 mm 3 mps 740 mmHg 98%
    05:00 +16°C° 0 mm 3 mps 740 mmHg 97%
    06:00 +16°C° 0 mm 3 mps 740 mmHg 96%
    07:00 +16°C° 0 mm 3 mps 740 mmHg 95%
    08:00 +17°C° 0 mm 4 mps 741 mmHg 93%
    09:00 +18°C° 0.2 mm 4 mps 741 mmHg 89%
    10:00 +19°C° 0.2 mm 5 mps 741 mmHg 84%
    11:00 +20°C° 0.2 mm 6 mps 742 mmHg 80%
    12:00 +20°C° 0.3 mm 6 mps 742 mmHg 78%
    13:00 +21°C° 0.3 mm 5 mps 742 mmHg 76%
    14:00 +21°C° 0.3 mm 5 mps 742 mmHg 74%
    15:00 +21°C° 0.2 mm 4 mps 742 mmHg 76%
    16:00 +21°C° 0.2 mm 3 mps 742 mmHg 78%
    17:00 +20°C° 0.2 mm 3 mps 742 mmHg 80%
    18:00 +19°C° 0.1 mm 2 mps 742 mmHg 83%
    19:00 +18°C° 0.1 mm 1 mps 742 mmHg 87%
    20:00 +15°C° 0.1 mm 0 mps 742 mmHg 90%
    21:00 +16°C° 0 mm 1 mps 742 mmHg 91%
    22:00 +15°C° 0 mm 1 mps 742 mmHg 91%
    23:00 +15°C° 0 mm 1 mps 742 mmHg 92%

    30 May, Saturday

    Time Temperature Precipitation Wind Pressure Humidity
    00:00 +15°C° 0 mm 1 mps 742 mmHg 93%
    01:00 +15°C° 0 mm 2 mps 742 mmHg 94%
    02:00 +14°C° 0 mm 2 mps 742 mmHg 95%
    03:00 +15°C° 0 mm 2 mps 742 mmHg 95%
    04:00 +15°C° 0 mm 2 mps 742 mmHg 96%
    05:00 +14°C° 0 mm 3 mps 742 mmHg 96%
    06:00 +16°C° 2.5 mm 3 mps 742 mmHg 96%
    07:00 +16°C° 2.5 mm 3 mps 742 mmHg 97%
    08:00 +15°C° 2.5 mm 4 mps 741 mmHg 98%
    09:00 +17°C° 4.3 mm 4 mps 741 mmHg 97%
    10:00 +17°C° 4.3 mm 4 mps 741 mmHg 97%
    11:00 +16°C° 4.3 mm 5 mps 741 mmHg 97%
    12:00 +17°C° 1.2 mm 5 mps 740 mmHg 95%
    13:00 +19°C° 1.2 mm 4 mps 740 mmHg 94%
    14:00 +20°C° 1.2 mm 4 mps 739 mmHg 92%
    15:00 +20°C° 1.6 mm 4 mps 739 mmHg 92%
    16:00 +20°C° 1.6 mm 4 mps 739 mmHg 91%
    17:00 +20°C° 1.6 mm 4 mps 739 mmHg 91%
    18:00 +19°C° 0.5 mm 4 mps 738 mmHg 92%
    19:00 +18°C° 0.5 mm 3 mps 738 mmHg 94%
    20:00 +17°C° 0.5 mm 3 mps 738 mmHg 95%
    21:00 +17°C° 0 mm 2 mps 738 mmHg 95%
    22:00 +16°C° 0 mm 2 mps 737 mmHg 95%
    23:00 +15°C° 0 mm 2 mps 737 mmHg 95%
    Show more